METEOR 2-11 DEB, 40708

Orbit data source: Space-Track

METEOR 2-11 DEB, 40708 is space debris in LEO originally from a launch on Thu, 05 Jul 1984 UTC launched from the Plesetsk Missile And Space Complex (PKMTR). Debris objects in space refer to the collection of defunct objects orbiting the Earth. Examples of debris include non-operational satellites, rocket bodies, and fragments generated from explosions, collisions, or faulty payload assembly.

Loading next visibility...
Identifier
40708, 1984-072K
Orbit
LEO
Country
Flag of CISCIS
Related business
Manufacturer
Unknown
Mission
Spacecraft
Bus & Motor
Unknown
Mass
Unknown
Launch date (UTC)
1984-07-05 (41 years ago)
Launch vehicle
Unknown
Launch site
Plesetsk Missile And Space Complex (PKMTR)
Object type
Payload
Rocket body
Debris
Shape & HBR
Unknown shape, 0.1 m
Radar Cross Section
Small (<0.1 m²)

Expand to show TLE details & history
Last TLE update: 1 day ago

TLE from 1 day ago
0 METEOR 2-11 DEB
1 40708U 84072K   25310.41256871  .00003368  00000-0  23895-2 0  9994
2 40708  82.5140 187.0913 0020821 230.4243 129.5086 13.97285601542915
Epoch: 2025-11-06T09:54Z
TLE epoch observation values (Epoch: 2025-11-06T09:54:05.936Z)
Latitude
-0.00003°
Longitude
-7.30469°
Altitude
915.795 km
Speed
7.389 km/s
True Right ascension
12h 28m 21s
True Declination
0° 00' 00"
Sunlit
Object was in daylight at epoch
Visualization orbit readout
Latitude
Unknown
Longitude
Unknown
Altitude
Unknown
Speed
Unknown
Apparent Right ascension
Unknown
Apparent Declination
Unknown
Sunlit
N/A
Visualization observer readout
Local Sidereal Time
15:36:24
Azimuth
Unknown
Elevation
Unknown
Doppler factor
Unknown
Orbital elements
Apogee altitude
915.499 km
Perigee altitude
885.19 km
Semi-major axis
7,278.482 km
Eccentricity
0.00208
Inclination
82.514°
RAAN
187.0913°
Arg. of periapsis
230.4243°
True anomaly
129.69238°
Mean anomaly
129.5086°
Eccentric anomaly
129.60052°
Mean motion
3.49528 °/min
Orbital period
103 mins
BSTAR
0.0023895
Loading maneuver chart data...
Computing Atmospheric mass density...
Loading historical data...
Loading historical data...
Loading historical data...
Loading historical data...
Loading historical data...
Loading historical data...
Loading historical data...

Documentation

Showing up to 5 results
|